Location: Schommer Observatory
(40.5200°N, 74.4500°W)
Time: 05:55:51
(UTC-05:00)

N. Korean satellite - Visible Passes

Search period start: 20 January 2018 00:00
Search period end: 30 January 2018 00:00
Orbit: 459 x 515 km, 97.2° (Epoch: 19 January)

Date Brightness Start Highest point End Pass type
(mag) Time Alt. Az. Time Alt. Az. Time Alt. Az.
20 Jan 10.0 18:59:52 10° WSW 19:01:36 13° W 19:03:21 10° WNW visible
21 Jan 7.6 06:25:19 10° NNE 06:28:41 48° E 06:32:01 10° S visible
21 Jan 9.0 18:34:47 10° SSW 18:37:49 25° W 18:40:48 10° NW visible
22 Jan 9.2 06:02:06 10° NE 06:04:55 23° E 06:07:44 10° SSE visible
22 Jan 7.5 18:10:34 10° S 18:14:04 51° W 18:17:32 10° NNW visible
23 Jan 10.1 05:39:46 10° ENE 05:41:06 12° E 05:42:25 10° ESE visible
23 Jan 6.4 17:46:51 10° SSE 17:50:24 73° ENE 17:53:55 10° N visible
24 Jan 10.0 18:58:41 10° WSW 19:00:25 13° W 19:02:09 10° WNW visible
25 Jan 7.7 06:24:07 10° NNE 06:27:28 47° E 06:30:50 10° S visible
25 Jan 9.0 18:33:36 10° SSW 18:36:36 25° W 18:39:35 10° NW visible
26 Jan 9.3 06:00:53 10° NE 06:03:42 23° E 06:06:31 10° SSE visible
26 Jan 7.4 18:09:23 10° S 18:12:51 53° W 18:16:18 10° NNW visible
27 Jan 10.1 05:38:37 10° ENE 05:39:52 12° E 05:41:09 10° ESE visible
27 Jan 6.4 17:45:40 10° SSE 17:49:11 70° ENE 17:52:40 10° N visible
28 Jan 10.0 18:57:25 10° WSW 18:59:11 13° W 19:00:56 10° WNW visible
29 Jan 7.8 06:22:51 10° NNE 06:26:13 46° E 06:29:36 10° S visible
29 Jan 9.0 18:32:22 10° SSW 18:35:21 26° W 18:38:20 10° NW visible
